Theta_e
327 323 313 304 294 293 289 291 295 299 307 311 317 315 313 314 310 300 325 331 334 334 338 339 341 339 336 333 332 330 330 330 329 329 329 328 327 328 328 327 328 331 333 332 332 331 329 327 327
323 321 308 299 290 287 288 294 297 302 313 314 315 314 312 313 321 323 325 335 336 336 337 336 338 337 334 332 330 329 329 328 328 328 327 326 326 326 327 327 329 331 332 332 331 331 328 327 328
320 313 305 295 288 287 291 296 298 304 311 307 313 316 315 317 323 324 331 335 336 334 335 336 337 335 333 331 329 328 327 326 327 326 326 325 325 326 325 328 328 329 330 330 331 330 328 327 327
315 311 304 291 288 290 295 297 301 304 307 315 314 312 318 328 328 330 334 336 334 333 334 336 336 333 331 329 328 326 326 325 325 325 324 324 324 325 326 327 327 328 330 330 329 329 328 327 327
314 306 296 291 289 292 294 296 299 303 308 309 311 312 317 329 332 334 334 335 332 331 332 332 334 331 329 327 326 325 325 324 324 323 323 323 323 324 325 326 327 328 329 330 330 329 328 329 328
308 304 292 288 289 293 295 298 305 305 308 308 311 313 320 330 328 329 331 330 330 326 325 325 326 328 327 325 324 324 323 322 322 322 322 323 324 324 324 326 327 328 327 327 328 328 327 327 327
306 300 296 294 292 293 294 297 300 303 305 306 313 312 323 325 326 326 326 325 324 322 320 319 320 322 323 325 324 322 321 321 321 321 321 321 321 321 321 322 324 326 327 326 326 327 326 325 324
306 302 294 293 290 291 295 301 306 307 303 310 310 310 313 324 325 324 324 322 320 318 315 313 313 313 313 315 321 321 320 320 320 320 319 318 318 318 320 320 323 324 326 326 326 325 324 324 323
308 298 292 294 291 293 295 303 308 310 308 309 309 310 323 324 323 322 321 320 320 319 314 313 309 310 311 312 314 316 317 317 317 316 316 312 310 310 311 317 320 321 322 324 325 325 323 321 321
305 298 297 295 293 295 296 298 305 305 305 310 314 318 323 322 322 319 318 317 318 318 318 314 309 309 310 314 311 310 312 310 310 309 309 309 308 310 311 311 315 317 316 319 322 323 320 316 312
302 298 295 295 296 296 298 298 301 304 300 308 313 315 319 321 320 319 319 319 319 319 314 312 309 308 310 310 309 308 309 308 308 307 307 307 307 307 307 307 308 308 310 309 312 313 313 313 312
297 298 297 298 297 297 296 299 298 300 299 309 315 315 315 318 318 319 320 319 318 316 312 313 310 309 309 309 308 308 308 307 307 307 308 306 306 306 306 306 307 307 307 308 308 310 312 312 312
297 296 297 298 298 297 299 296 298 298 301 309 313 314 314 314 314 314 317 318 319 313 311 311 311 309 309 307 307 308 308 307 307 307 308 308 307 306 306 307 308 307 307 307 307 309 311 311 311
298 297 296 297 296 297 296 295 296 298 302 306 310 309 311 312 311 311 315 319 317 313 311 311 312 310 308 306 306 307 307 307 307 308 310 312 309 308 308 309 310 310 310 309 308 309 313 313 311
299 295 295 295 295 295 296 292 294 299 302 303 304 304 307 309 309 311 313 319 315 311 311 311 311 309 307 306 307 308 308 308 307 309 309 310 311 312 312 310 312 312 312 311 308 310 312 314 312
296 296 292 296 295 295 294 289 293 299 300 300 300 300 301 302 306 307 308 312 311 307 307 309 312 309 308 307 307 307 307 307 306 306 306 306 309 310 307 306 305 305 309 310 306 308 309 310 308
295 291 290 294 297 294 293 291 294 298 299 300 298 299 300 301 302 302 304 305 306 307 306 307 310 310 308 308 307 306 305 304 304 303 301 302 304 306 304 303 303 304 303 304 305 306 308 307 306
290 290 290 291 295 293 290 291 293 296 297 298 299 299 299 300 302 302 303 304 304 305 308 309 311 310 310 309 308 304 303 302 301 300 299 300 300 302 302 301 302 302 301 301 302 304 304 306 304
294 292 289 292 295 291 291 291 293 295 294 295 296 298 299 300 301 302 302 302 302 303 304 308 310 310 309 307 304 302 301 304 301 297 297 297 298 300 300 300 300 300 299 299 300 301 303 303 302
294 292 289 293 293 292 292 291 295 295 294 296 297 297 299 299 298 300 300 300 300 301 302 305 308 309 309 308 306 306 305 303 301 296 295 295 295 297 299 298 298 298 297 296 296 298 300 297 296
289 290 289 290 291 291 289 287 289 293 297 296 298 299 299 300 299 300 299 299 299 299 300 302 305 306 309 309 308 306 303 302 299 295 293 293 293 294 295 296 295 295 294 292 292 293 297 295 293
286 291 291 291 287 281 289 279 286 289 291 294 296 296 296 298 299 299 299 298 299 299 300 301 303 303 305 307 307 305 303 301 299 294 291 291 292 292 293 294 293 292 291 289 289 290 291 294 290
289 292 289 288 286 284 283 281 285 288 289 292 294 296 297 297 299 298 299 300 299 298 298 299 300 300 301 305 306 305 303 302 298 293 290 290 290 291 292 292 291 290 289 288 288 288 288 288 287
293 290 289 286 284 274 281 280 282 285 289 292 294 295 296 296 298 299 300 299 297 297 297 297 297 298 298 300 307 305 303 299 295 292 289 288 288 288 290 291 290 290 288 288 287 286 285 285 284
290 286 277 274 273 275 282 281 284 290 292 292 293 294 295 295 296 296 296 296 296 296 295 295 296 296 296 297 300 305 303 300 297 293 289 287 286 286 287 289 289 288 287 287 286 285 285 284 283
287 286 279 273 274 277 283 279 285 291 291 292 293 293 294 294 295 295 296 296 295 295 294 294 294 294 294 294 295 298 301 300 298 292 289 287 286 286 287 288 288 287 286 285 285 284 284 283 282
286 283 288 282 276 276 279 282 287 288 289 289 290 290 292 293 293 293 293 293 293 294 294 294 292 292 292 292 292 292 294 293 291 289 288 286 286 287 286 287 286 285 285 284 284 283 282 282 281
288 290 282 281 271 272 277 278 281 285 287 288 289 289 290 291 291 291 292 292 293 293 294 292 293 292 291 290 290 290 290 290 289 287 285 285 285 285 285 285 284 284 284 283 283 282 282 280 280
285 284 285 284 281 276 274 278 285 286 287 287 289 289 290 290 291 290 289 290 290 290 290 290 289 289 288 288 287 287 286 286 286 285 285 284 284 284 284 284 283 283 282 281 281 280 281 280 279
286 284 285 280 278 279 279 281 288 287 287 287 288 288 288 290 290 289 289 288 288 288 288 289 288 288 287 286 285 285 285 285 284 284 284 284 283 283 283 283 282 282 281 280 279 279 279 278 277
Wind_Speed
9 7 0 5 6 6 1 2 2 4 3 3 3 9 8 5 3 3 2 5 10 7 8 11 13 12 10 9 10 9 9 9 9 10 10 10 11 11 11 11 11 11 13 14 16 15 14 14 14
5 4 4 3 7 4 4 2 4 2 6 8 7 5 6 6 4 7 7 8 11 9 9 8 10 12 11 10 10 9 9 9 10 10 11 10 10 10 10 12 11 13 15 14 15 15 14 15 15
3 1 5 6 4 4 4 2 4 3 5 1 5 5 3 4 4 5 9 12 12 9 9 8 10 10 10 11 10 9 9 10 10 10 10 11 11 10 11 11 11 13 13 13 14 14 14 15 15
3 5 5 6 4 1 3 4 5 7 2 6 4 7 3 3 1 8 14 12 11 8 7 9 10 9 10 11 10 11 9 10 10 11 10 11 11 11 11 11 12 12 13 14 14 13 14 14 14
4 3 5 5 4 2 1 1 2 4 3 4 1 4 4 4 11 13 13 11 14 10 8 8 10 9 9 11 9 11 10 10 9 9 9 11 12 11 10 10 11 12 12 14 14 14 15 17 17
4 2 5 4 4 1 2 3 4 5 3 2 6 7 4 6 11 8 10 11 10 11 8 7 9 9 9 11 10 10 9 9 9 10 9 11 13 13 12 12 12 13 12 12 13 14 15 16 16
6 4 4 5 5 2 2 2 4 4 3 3 1 6 5 5 7 10 9 10 10 9 7 5 5 7 9 8 9 9 9 9 9 10 11 9 9 9 10 10 11 13 12 13 13 15 14 16 16
5 5 3 2 4 3 2 4 3 5 2 3 3 6 9 5 10 11 10 10 8 5 6 6 5 5 6 5 8 8 9 9 10 10 12 11 10 10 9 9 11 13 13 13 12 14 15 15 14
3 5 3 4 4 4 1 5 3 1 6 3 3 2 8 14 11 11 11 8 6 5 4 4 4 5 5 5 5 7 9 9 9 8 10 7 4 5 6 8 12 14 13 12 11 12 13 12 11
6 3 5 2 0 3 2 5 5 4 2 3 3 4 10 13 12 12 11 9 7 6 6 4 5 5 4 4 5 4 5 4 4 4 5 4 4 4 4 6 10 11 12 12 11 10 9 7 4
3 2 4 2 2 1 4 4 1 9 1 4 12 12 7 10 8 8 8 8 10 7 4 5 5 4 5 4 3 2 2 3 3 4 4 4 3 4 3 3 4 4 7 4 5 5 4 5 5
5 4 2 1 3 2 3 5 4 2 2 4 9 6 4 8 7 6 7 8 9 7 5 5 5 5 5 3 3 4 3 2 2 3 4 3 3 3 3 3 3 4 3 5 4 3 5 6 6
4 2 4 4 7 6 5 4 4 3 2 4 9 7 8 6 5 4 4 3 6 7 7 5 6 6 5 5 3 3 3 3 2 3 4 3 3 3 2 3 3 3 4 4 4 3 4 5 6
2 5 3 4 4 4 4 2 2 4 4 4 5 7 7 8 8 5 6 6 5 6 7 6 6 6 5 4 5 3 3 2 3 3 3 5 3 3 3 3 3 4 4 3 4 3 4 6 7
3 5 3 5 3 4 2 1 5 5 7 7 6 5 7 9 8 10 8 8 7 4 5 7 7 5 6 5 5 4 3 3 3 3 5 5 5 4 4 4 3 4 3 4 4 4 3 7 8
5 5 2 2 1 2 4 6 2 5 8 8 7 6 5 5 5 5 3 4 4 4 3 4 6 7 6 6 4 4 3 3 3 4 4 6 5 5 4 4 4 4 3 3 4 3 5 6 7
5 3 1 2 3 3 2 5 4 4 5 7 7 8 7 7 7 5 3 3 4 4 5 4 5 6 7 5 5 4 5 4 4 4 4 5 5 5 4 3 3 3 3 3 3 3 3 8 9
4 3 0 3 1 2 1 10 0 5 6 8 8 8 8 10 14 6 6 5 5 5 4 4 5 7 7 5 4 3 4 4 4 4 4 4 4 4 3 3 3 3 3 3 3 3 4 5 9
6 4 2 3 2 1 6 8 9 8 6 10 11 11 13 15 5 7 7 7 6 5 6 5 6 7 7 5 3 1 3 1 3 4 4 4 4 4 3 2 3 3 3 3 2 3 4 5 10
6 4 1 2 2 2 5 10 13 9 12 16 17 16 17 11 7 8 9 8 8 7 7 6 5 7 7 6 3 3 3 2 3 3 3 3 4 3 2 2 2 3 3 4 3 2 2 3 2
3 3 1 2 3 1 7 9 5 5 12 9 17 16 15 18 16 12 12 11 7 8 8 7 7 7 7 8 4 4 4 3 2 2 1 2 3 2 2 3 3 4 3 2 2 3 5 4 2
2 2 2 2 4 2 4 8 7 4 8 8 13 11 12 12 8 9 11 10 11 9 6 6 6 6 5 7 7 8 5 4 3 3 2 1 1 2 2 3 3 4 3 3 2 1 2 4 4
2 3 2 2 2 3 4 1 11 4 7 8 9 12 13 13 14 14 15 15 11 8 8 6 6 6 5 6 7 7 5 2 3 3 5 2 1 2 2 3 4 4 3 3 4 3 3 2 4
3 4 7 5 3 3 4 5 9 3 4 6 3 6 9 9 11 12 11 8 9 7 7 6 7 7 6 6 7 9 8 7 6 5 4 3 2 1 2 3 4 3 4 4 3 5 5 5 5
6 5 3 6 4 5 1 3 11 11 11 7 10 11 7 8 9 9 11 12 10 12 9 7 7 7 6 6 6 7 8 10 11 9 6 6 3 2 3 2 4 3 3 4 4 5 5 4 5
5 6 5 5 3 4 2 7 10 7 5 6 7 8 8 6 6 8 10 10 11 12 10 9 8 7 7 6 7 5 6 6 6 7 6 5 4 4 5 4 4 5 5 4 5 4 4 5 5
4 4 4 2 1 1 6 7 10 7 8 6 9 5 8 7 7 7 6 7 7 9 11 11 8 7 7 7 5 5 4 5 6 6 5 4 4 4 5 5 6 5 6 5 6 3 5 4 4
5 6 3 2 2 6 5 5 8 7 6 9 8 7 8 6 6 6 7 9 9 10 9 9 10 11 8 6 5 4 5 5 5 5 6 6 5 4 5 6 6 6 5 6 7 5 5 5 3
3 3 2 4 5 4 4 7 7 6 4 6 9 7 8 8 7 5 4 5 6 5 6 7 7 7 6 6 5 5 5 5 5 5 6 7 6 8 7 6 7 7 6 6 6 6 6 7 6
3 3 6 5 5 4 3 14 4 8 6 4 10 8 8 6 6 4 6 6 7 8 7 9 8 8 8 7 7 7 7 6 6 5 6 6 8 7 8 7 6 7 7 6 7 8 6 8 7
Wind_Direction
312 312 43 39 67 64 97 118 313 107 70 338 66 106 104 46 73 164 232 129 105 101 107 108 111 109 102 92 84 74 65 56 52 58 57 50 44 41 48 44 44 36 41 40 36 37 36 39 39
302 324 44 85 86 80 274 285 119 123 151 149 69 57 48 75 72 104 91 109 105 109 100 104 111 111 106 95 84 76 68 56 49 49 54 54 52 49 53 49 41 39 41 41 42 41 37 43 45
346 292 80 90 104 147 161 67 88 91 137 110 100 54 81 83 128 117 124 122 113 105 106 109 106 104 103 95 85 72 63 61 53 50 55 57 57 51 56 53 41 42 41 45 43 43 45 44 43
6 13 38 84 125 17 143 154 119 127 103 55 107 69 61 339 105 128 124 116 102 95 89 100 102 104 103 91 80 72 53 63 66 56 58 62 59 49 55 50 44 41 40 35 44 51 51 47 46
21 56 66 89 88 146 351 27 109 96 92 10 145 100 79 53 90 107 115 117 111 100 95 93 92 94 90 86 74 73 60 59 63 63 59 58 67 64 60 51 43 37 32 36 46 55 54 58 62
40 92 76 130 110 189 69 38 108 72 115 113 87 105 84 109 99 98 102 107 105 107 96 92 84 84 81 86 78 70 63 56 62 67 63 63 61 61 44 31 35 36 46 47 53 58 60 64 69
109 75 136 118 141 71 93 55 59 95 91 45 149 105 106 102 103 105 104 102 104 109 110 108 105 99 88 82 79 67 60 70 65 68 56 45 46 45 45 36 41 34 45 54 61 65 65 69 72
94 89 86 65 179 167 17 84 86 57 95 290 353 144 159 148 130 119 112 110 110 116 126 132 125 115 108 96 89 72 61 63 62 65 68 58 48 50 48 39 40 41 38 45 62 68 71 74 66
94 68 144 167 159 161 327 113 53 59 89 54 0 37 120 134 128 120 117 118 123 139 149 139 136 131 131 116 101 74 60 52 60 64 62 47 39 36 31 31 37 34 34 42 59 74 69 66 48
66 87 165 135 219 162 71 88 121 102 100 68 112 83 120 137 144 142 145 145 152 153 161 162 150 140 131 100 102 87 71 63 61 61 67 64 48 35 37 24 33 29 28 30 51 71 65 55 49
29 115 162 64 90 61 110 77 74 125 181 219 162 140 135 147 146 155 153 166 158 150 149 148 139 134 125 114 113 86 78 60 56 65 54 54 51 18 25 24 18 23 27 27 33 58 51 53 55
100 49 104 120 6 75 88 119 75 41 304 177 121 119 120 152 157 163 163 159 151 150 144 143 142 132 132 118 117 118 105 88 67 48 51 48 41 36 17 34 23 25 32 40 41 71 80 61 57
77 109 54 90 71 65 80 51 135 99 40 84 125 140 152 151 147 131 127 121 140 156 155 163 147 143 139 125 124 115 108 93 78 50 30 43 41 42 24 23 19 35 43 40 44 73 86 73 64
89 90 82 30 56 65 97 107 67 202 139 129 158 167 167 170 168 154 174 169 176 158 164 158 153 152 144 139 133 132 112 111 74 49 23 33 56 25 36 24 23 34 42 35 60 71 99 89 85
94 78 54 36 3 53 123 312 239 156 156 171 187 204 182 183 176 194 192 173 175 180 167 164 149 153 136 137 130 123 113 79 56 34 30 20 23 25 43 35 25 12 19 42 47 60 88 101 93
67 59 80 352 105 27 65 274 265 161 157 195 196 212 223 240 210 190 184 155 144 139 168 156 156 153 139 139 126 116 112 90 58 32 24 17 20 34 37 55 31 16 12 41 32 45 82 87 88
38 133 171 310 202 108 139 264 357 157 184 212 217 222 232 244 249 246 221 199 201 186 176 180 168 155 134 131 125 120 105 83 62 47 33 19 21 34 56 62 47 38 49 50 37 43 73 103 93
155 118 318 263 352 69 231 266 263 204 209 230 229 236 239 240 236 194 212 203 215 222 225 205 171 149 143 135 118 104 114 114 76 47 33 23 29 36 51 54 52 54 71 68 60 87 53 95 104
103 75 54 301 356 183 245 264 268 209 220 234 231 225 231 236 221 182 201 204 201 218 221 212 182 161 152 144 131 150 167 144 96 72 41 28 30 30 40 48 55 56 69 74 109 103 115 93 117
71 89 345 287 4 185 314 272 257 204 215 217 222 223 226 221 199 197 194 198 196 199 213 218 205 174 172 166 162 163 144 91 108 109 65 38 40 38 74 73 65 65 85 69 70 98 113 96 15
51 113 212 197 350 54 327 281 265 278 230 222 230 226 224 216 210 202 193 199 192 205 206 206 208 199 180 175 134 101 92 98 136 104 104 25 48 48 78 80 87 86 76 90 115 145 151 144 72
50 314 80 80 46 298 39 291 301 302 285 238 246 238 235 220 211 192 190 193 199 201 193 205 198 201 199 171 175 171 185 163 179 152 155 132 81 96 92 102 104 96 99 89 76 62 153 135 143
199 47 78 105 72 26 345 39 273 347 301 272 249 240 237 215 199 197 198 200 191 175 190 188 193 203 200 185 181 184 183 135 125 126 139 143 74 64 85 105 109 105 97 86 81 69 74 87 130
99 52 39 48 62 17 249 141 282 239 230 307 281 268 247 222 211 207 200 168 179 170 177 184 192 208 211 212 200 193 176 153 146 160 163 174 186 135 123 127 109 99 94 88 81 57 47 81 84
76 69 338 0 6 236 155 213 256 273 262 230 269 290 280 225 205 196 180 180 179 184 183 182 196 214 214 221 228 197 183 173 177 178 170 171 178 181 187 145 117 97 88 71 63 80 71 58 91
169 151 160 235 223 267 100 243 246 225 265 268 250 267 303 260 217 203 197 187 185 184 183 185 191 205 208 220 231 221 181 183 185 174 172 178 179 168 166 137 120 111 97 89 80 77 74 69 75
182 167 176 56 73 12 229 288 298 326 316 289 278 293 282 281 244 215 183 182 182 188 191 191 190 198 200 212 221 227 190 165 170 170 163 168 150 169 155 145 134 126 122 112 102 99 97 89 85
158 163 96 18 256 258 275 271 244 295 324 328 329 303 293 273 233 221 200 194 194 200 196 185 196 202 194 189 197 207 198 177 164 152 157 163 154 158 164 151 143 138 140 129 127 131 113 112 98
135 189 148 159 172 225 312 263 217 233 272 271 288 291 301 294 266 242 229 222 215 203 189 195 190 197 195 185 179 182 193 184 163 167 169 176 162 162 169 170 156 157 154 139 129 126 122 120 121
326 268 165 173 233 233 254 262 209 242 265 297 285 299 295 293 287 244 223 220 223 215 202 203 195 197 198 186 180 189 177 173 172 179 179 172 182 177 179 172 163 156 155 153 151 152 147 145 147